Regional Weather Roundup
Issued by NWS

Home | Current Version | Previous Version | Graphics & Text | Print | Product List | Glossary On
Versions: 1 2 3 4 5 6 7 8 9 10 11 12 13 14 15 16 17 18 19 20 21 22 23 24 25 26 27 28 29 30 31 32 33 34 35 36 37 38 39 40 41 42 43 44 45 46 47 48 49 50
000
ASUS43 KDMX 040107
RWRIA

WEATHER ROUNDUP FOR IOWA
NATIONAL WEATHER SERVICE DES MOINES IA
800 PM CDT THU SEP 03 2015

NOTE: "FAIR" INDICATES FEW OR NO CLOUDS BELOW 12,000 FEET WITH NO
SIGNIFICANT WEATHER AND/OR OBSTRUCTIONS TO VISIBILITY.

* - THESE STATIONS ARE NOT NWS STATIONS...THUS NOT UNDER NWS
QUALITY CONTROL.  THEY ALSO DO NOT REPORT WEATHER SUCH
AS PRECIPITATION OR FOG.

IAZ001>003-012>014-020>022-031>034-043>046-040200-
   NORTHWEST IOWA

CITY           SKY/WX    TMP DP  RH WIND       PRES   REMARKS
CARROLL *      CLEAR     77  75  94 S6        29.83S
CHEROKEE *     PTCLDY    81  75  83 SE6       29.81S HX  86
DENISON *      CLEAR     81  73  78 S12       29.80S HX  85
LE MARS *      CLEAR     81  75  83 SE8       29.79S HX  86
ORANGE CITY *  CLEAR     81  75  83 SE3       29.81R HX  86
SHELDON *      PTCLDY    79  75  89 SE6       29.80S HX  82
SIOUX CITY     PTCLDY    82  71  69 SE7       29.77R HX  86
SPENCER        CLEAR     78  72  81 SE6       29.83S HX  80
STORM LAKE *   CLEAR     79  75  89 S8        29.84S HX  82
$$

IAZ055>058-069>071-079>083-090>094-040200-
   SOUTHWEST IOWA

CITY           SKY/WX    TMP DP  RH WIND       PRES   REMARKS
ATLANTIC *     CLEAR     81  73  78 S7        29.84R HX  85
AUDUBON *      CLEAR     81  73  78 S3        29.86R HX  85
CLARINDA *     CLEAR     81  72  74 S7        29.85S HX  84
COUNCIL BLFS * CLEAR     81  72  74 SE12      29.82S HX  84
CRESTON *      CLEAR     79  72  78 S7        29.88S HX  82
LAMONI         CLEAR     81  69  67 S6        29.88S HX  84
RED OAK *      CLEAR     82  73  74 SE8       29.83S HX  88
SHENANDOAH *   CLEAR     82  73  74 SE8       29.83S HX  88
$$

IAZ047>049-059>061-072>074-084-040200-
   CENTRAL IOWA

CITY           SKY/WX    TMP DP  RH WIND       PRES   REMARKS
AMES           CLEAR     78  73  84 SE6       29.85S HX  81
ANKENY *       PTCLDY    82  73  74 S5        29.85S HX  88
CHARITON *     PTCLDY    79  70  73 S6        29.88S HX  81
DES MOINES     PTCLDY    83  72  69 S6        29.85S HX  88
GRINNELL*      PTCLDY    81  72  74 S5        29.89R HX  84
KNOXVILLE *    PTCLDY    81  72  74 S6        29.86S HX  84
MARSHALLTOWN   PTCLDY    81  72  74 S7        29.87S HX  85
PELLA *        CLEAR     79  75  89 S3        29.88S HX  82
PERRY *          N/A     79  73  83 S5        29.84F HX  82
$$

IAZ004>006-015-016-023>025-035-036-040200-
   NORTH CENTRAL IOWA

CITY           SKY/WX    TMP DP  RH WIND       PRES   REMARKS
ALGONA *       PTCLDY    81  75  83 S8        29.84S HX  86
CLARION *      MOCLDY    79  73  83 SE8       29.85S HX  82
ESTHERVILLE    CLEAR     78  73  84 SE7       29.83S HX  81
FORT DODGE *   PTCLDY    82  72  69 S6        29.85S HX  87
MASON CITY     PTCLDY    78  74  87 SE6       29.87S HX  81
FOREST CITY *  PTCLDY    77  72  83 SE5       29.86S
IOWA FALLS *   MOCLDY    81  75  83 SE5       29.88S HX  86
$$

IAZ007>011-017>019-026>030-037>042-050>054-066-040200-
   NORTHEAST IOWA

CITY           SKY/WX    TMP DP  RH WIND       PRES   REMARKS
CEDAR RAPIDS   MOCLDY    81  75  82 CALM      29.88R HX  87
CHARLES CITY * PTCLDY    79  77  94 SE5       29.88S HX  83
CLINTON *      CLEAR     82  72  69 S3        29.92R HX  87
DECORAH *      CLEAR     81  75  83 SE3       29.88S HX  86
DUBUQUE        CLEAR     79  74  84 SW3       29.91R HX  82
MONTICELLO *   CLEAR     77  75  94 CALM      29.88S
OELWEIN *      MOCLDY    79  75  89 S3        29.89S HX  82
WATERLOO       PTCLDY    82  72  71 S7        29.86S HX  87
$$

IAZ064-065-067-068-078-040200-
   EAST CENTRAL IOWA

CITY           SKY/WX    TMP DP  RH WIND       PRES   REMARKS
DAVENPORT      CLEAR     76  72  87 CALM      29.89S
IOWA CITY      CLEAR     82  73  74 S3        29.88S HX  87
MT. PLEASANT * CLEAR     81  66  61 S3        29.89R HX  83
MUSCATINE *    CLEAR     82  73  74 CALM      29.87S HX  88
QUAD CITIES    CLEAR     79  72  79 CALM      29.88S HX  82
$$

IAZ062-063-075>077-085>089-095>099-040200-
   SOUTHEAST IOWA

CITY           SKY/WX    TMP DP  RH WIND       PRES   REMARKS
BURLINGTON     CLEAR     80  71  74 CALM      29.88S HX  84
FAIRFIELD *    CLEAR     82  70  65 S3        29.88S HX  86
FORT MADISON * CLEAR     81  72  74 CALM      29.90R HX  84
KEOKUK *       CLEAR     82  70  65 S3        29.88S HX  86
OSKALOOSA *      N/A     77  72  83 S3        29.88S
CENTERVILLE *  CLEAR     75  72  88 S5        29.90S
OTTUMWA        CLEAR     79  72  79 S5        29.86S HX  82
WASHINGTON *     N/A    N/A N/A N/A MISG        N/A
$$

ABBREVIATIONS USED IN REMARKS
   TC - TEMPERATURES IN CELSIUS
  WCI - WIND CHILL INDEX
   HX - HEAT INDEX
  VSB - VISIBILITY
$$



USA.gov is the U.S. government's official web portal to all federal, state and local government web resources and services.